Location: Bogis-Bossey
(46.3500°N, 6.1667°E)
Time: 17:16:04
(UTC+00:00)

NOSS 3-2 (A) - Pass Details

Date: 17 August 2022
Orbit: 748 x 1459 km, 63.4° (Epoch: 27 August)

Event Time Altitude Azimuth Distance (km) Brightness Sun altitude
Rises 23:30:26 0° 317° (NW) 3,997 7.4 -30.4°
Reaches altitude 10° 23:33:05 10° 313° (NW) 3,130 6.6 -30.5°
Enters shadow 23:40:18 49° 243° (WSW) 1,650 4.4 -30.5°
